This demonstration page uses our WeatherBlox Daily Observations layout. Learn more.

Left ArrowRight Arrow

Hourly Observations for September 2, 2017

Temp ( °F °C ) Dew Point ( °F °C ) Humidity (%) Winds ( mph kmh ) Pressure ( in mb ) Visibility ( mi km ) Precip ( " mm )
12:09 am 00:09 Cloudy 57 14 50 10 77 77 NNE 8 13 30.03 1017 10 16.0934 N/A
12:30 am 00:30 Cloudy 57 14 50 10 77 77 NNE 9 15 30 1016 10 16.0934 N/A
12:49 am 00:49 Cloudy 57 14 50 10 77 77 NNE 12 19 30 1016 10 16.0934 N/A
1:09 am 01:09 Cloudy 57 14 50 10 77 77 NNE 10 17 30 1016 10 16.0934 N/A
1:30 am 01:30 Cloudy 57 14 50 10 77 77 N 14 22 30 1016 10 16.0934 N/A
1:49 am 01:49 Mostly Cloudy 57 14 50 10 77 77 N 10 17 30 1016 10 16.0934 N/A
2:09 am 02:09 Mostly Cloudy 57 14 52 11 82 82 NNE 12 19 30 1016 10 16.0934 N/A
2:30 am 02:30 Cloudy 57 14 50 10 77 77 NNE 13 20 30 1016 10 16.0934 N/A
2:49 am 02:49 Mostly Cloudy 57 14 50 10 77 77 NNE 13 20 30 1016 10 16.0934 N/A
3:10 am 03:10 Mostly Cloudy 57 14 50 10 77 77 NNE 14 22 29.97 1015 10 16.0934 N/A
3:30 am 03:30 Cloudy 57 14 50 10 77 77 NNE 13 20 29.97 1015 10 16.0934 N/A
3:49 am 03:49 Cloudy 57 14 50 10 77 77 NNE 10 17 29.97 1015 10 16.0934 N/A
4:10 am 04:10 Cloudy 55 13 50 10 82 82 NNE 9 15 29.97 1015 10 16.0934 N/A
4:30 am 04:30 Mostly Cloudy 55 13 50 10 82 82 NNE 12 19 29.97 1015 10 16.0934 N/A
4:49 am 04:49 Partly Cloudy 55 13 50 10 82 82 NNE 10 17 29.97 1015 10 16.0934 N/A
5:09 am 05:09 Partly Cloudy 55 13 50 10 82 82 N 9 15 29.97 1015 10 16.0934 N/A
5:30 am 05:30 Clear 55 13 50 10 82 82 NNE 8 13 29.97 1015 10 16.0934 N/A
5:49 am 05:49 Mostly Cloudy 55 13 50 10 82 82 NNE 8 13 29.97 1015 10 16.0934 N/A
6:10 am 06:10 Mostly Cloudy 55 13 50 10 82 82 NNE 8 13 29.97 1015 10 16.0934 N/A
6:30 am 06:30 Partly Cloudy 55 13 50 10 82 82 NNE 12 19 29.97 1015 10 16.0934 N/A
6:49 am 06:49 Partly Cloudy 55 13 50 10 82 82 NNE 9 15 29.97 1015 10 16.0934 N/A
7:10 am 07:10 Partly Cloudy 55 13 50 10 82 82 N 7 11 29.97 1015 10 16.0934 N/A
7:30 am 07:30 Mostly Cloudy 55 13 50 10 82 82 N 5 7 29.97 1015 10 16.0934 N/A
7:49 am 07:49 Cloudy 55 13 50 10 82 82 N 6 9 30 1016 10 16.0934 N/A
8:10 am 08:10 Cloudy 55 13 50 10 82 82 N 7 11 30 1016 10 16.0934 N/A
8:30 am 08:30 Cloudy 55 13 50 10 82 82 N 7 11 30 1016 10 16.0934 N/A
8:49 am 08:49 Cloudy 55 13 50 10 82 82 N 7 11 30 1016 10 16.0934 N/A
9:10 am 09:10 Cloudy 55 13 50 10 82 82 N 8 13 30 1016 10 16.0934 N/A
9:30 am 09:30 Cloudy 55 13 50 10 82 82 N 7 11 30 1016 10 16.0934 N/A
9:49 am 09:49 Cloudy 57 14 50 10 77 77 N 8 13 30 1016 10 16.0934 N/A
10:10 am 10:10 Mostly Cloudy 57 14 52 11 82 82 NE 5 7 30 1016 10 16.0934 N/A
10:30 am 10:30 Mostly Cloudy 57 14 52 11 82 82 NE 6 9 30 1016 10 16.0934 N/A
10:49 am 10:49 Mostly Cloudy 61 16 52 11 72 72 NE 5 7 30 1016 10 16.0934 N/A
11:10 am 11:10 Partly Cloudy 63 17 52 11 68 68 NE 5 7 30 1016 10 16.0934 N/A
11:30 am 11:30 Partly Cloudy 63 17 52 11 68 68 N 3 6 30 1016 10 16.0934 N/A
11:49 am 11:49 Cloudy 63 17 52 11 68 68 NW 5 7 30 1016 10 16.0934 N/A
12:10 pm 12:10 Cloudy 63 17 54 12 73 73 NNW 8 13 30 1016 10 16.0934 N/A
12:30 pm 12:30 Cloudy 63 17 54 12 73 73 N 7 11 30 1016 10 16.0934 N/A
12:49 pm 12:49 Cloudy 64 18 54 12 68 68 NNW 8 13 30 1016 10 16.0934 N/A
1:10 pm 13:10 Cloudy 64 18 55 13 73 73 N 7 11 30 1016 10 16.0934 N/A
1:30 pm 13:30 Cloudy 66 19 55 13 68 68 N 5 7 30 1016 10 16.0934 N/A
1:50 pm 13:50 Cloudy 66 19 55 13 68 68 NNW 8 13 30 1016 10 16.0934 N/A
2:10 pm 14:10 Cloudy 66 19 55 13 68 68 NNW 6 9 30 1016 10 16.0934 N/A
2:29 pm 14:29 Cloudy 66 19 55 13 68 68 N 6 9 30 1016 10 16.0934 N/A
2:50 pm 14:50 Cloudy 66 19 55 13 68 68 N 5 7 30 1016 10 16.0934 N/A
3:09 pm 15:09 Cloudy 68 20 55 13 64 64 N 6 9 30 1016 10 16.0934 N/A
3:29 pm 15:29 Cloudy 68 20 57 14 69 69 Calm 30 1016 10 16.0934 N/A
3:50 pm 15:50 Cloudy 68 20 57 14 69 69 N 7 11 29.97 1015 10 16.0934 N/A
4:10 pm 16:10 Cloudy 70 21 57 14 64 64 Calm 29.94 1014 10 16.0934 N/A
4:29 pm 16:29 Cloudy 70 21 57 14 64 64 N 6 9 29.94 1014 10 16.0934 N/A
4:50 pm 16:50 Cloudy 70 21 57 14 64 64 NW 3 6 29.94 1014 10 16.0934 N/A
5:10 pm 17:10 Mostly Cloudy 72 22 59 15 65 65 NE 5 7 29.94 1014 10 16.0934 N/A
5:29 pm 17:29 Partly Cloudy 72 22 57 14 61 61 NW 3 6 29.94 1014 10 16.0934 N/A
5:50 pm 17:50 Mostly Cloudy 73 23 57 14 57 57 N 3 6 29.94 1014 10 16.0934 N/A
6:09 pm 18:09 Mostly Cloudy 73 23 57 14 57 57 NNW 6 9 29.94 1014 10 16.0934 N/A
6:30 pm 18:30 Mostly Cloudy 75 24 55 13 50 50 NW 8 13 29.94 1014 10 16.0934 N/A
6:49 pm 18:49 Partly Cloudy 73 23 52 11 47 47 NW 8 13 29.94 1014 10 16.0934 N/A
7:09 pm 19:09 Sunny 72 22 52 11 50 50 NW 8 13 29.94 1014 10 16.0934 N/A
7:30 pm 19:30 Sunny 70 21 52 11 53 53 WNW 6 9 29.94 1014 10 16.0934 N/A
7:49 pm 19:49 Sunny 68 20 52 11 56 56 WNW 6 9 29.97 1015 10 16.0934 N/A
8:09 pm 20:09 Sunny 68 20 54 12 60 60 WNW 5 7 29.97 1015 10 16.0934 N/A
8:30 pm 20:30 Clear 66 19 52 11 60 60 W 3 6 30 1016 10 16.0934 N/A
8:49 pm 20:49 Clear 64 18 54 12 68 68 WNW 3 6 30 1016 10 16.0934 N/A
9:09 pm 21:09 Clear 61 16 54 12 77 77 WNW 5 7 30 1016 10 16.0934 N/A
9:30 pm 21:30 Clear 57 14 54 12 88 88 W 5 7 30 1016 10 16.0934 N/A
9:49 pm 21:49 Clear 57 14 52 11 82 82 W 5 7 30 1016 10 16.0934 N/A
10:09 pm 22:09 Clear 59 15 52 11 77 77 WSW 3 6 30 1016 10 16.0934 N/A
10:30 pm 22:30 Clear 55 13 52 11 88 88 WSW 3 6 30 1016 10 16.0934 N/A
10:49 pm 22:49 Partly Cloudy 55 13 52 11 88 88 Calm 30 1016 10 16.0934 N/A
11:09 pm 23:09 Partly Cloudy 55 13 52 11 88 88 Calm 30 1016 10 16.0934 N/A
11:30 pm 23:30 Clear 54 12 52 11 94 94 Calm 30.03 1017 10 16.0934 N/A
11:49 pm 23:49 Clear 52 11 50 10 94 94 Calm 30.06 1018 10 16.0934 N/A

Powered by AerisWeather